• Processing (Info)

  • MPEC 2022-M43 : 2022 MW

    The following Minor Planet Electronic Circular may be linked-to from your own Web pages, but must not otherwise be redistributed electronically.

    A form allowing access to any MPEC is at the bottom of this page.


    Read MPEC 2022-M42 Read MPEC 2022-M44


    M.P.E.C. 2022-M43                                 Issued 2022 June 23, 10:11 UT
    
         The Minor Planet Electronic Circulars contain information on unusual
             minor planets and routine data on comets.  They are published
        on behalf of Division F of the International Astronomical Union by the
              Minor Planet Center, Smithsonian Astrophysical Observatory,
                              Cambridge, MA 02138, U.S.A.
    
                 Prepared using the Tamkin Foundation Computer Network
    
                                  MPC@CFA.HARVARD.EDU
                URL https://www.minorplanetcenter.net/    ISSN 1523-6714
    
                                     2022 MW                                 
    
    
    Observations:
         K22M00W* C2022 06 21.41273616 40 58.410+06 23 25.58         22.37wUEM043F52
         K22M00W  C2022 06 21.42440216 40 58.971+06 23 30.37         21.85wUEM043F52
         K22M00W  C2022 06 21.43595316 40 59.516+06 23 35.50         21.69wUEM043F52
         K22M00W  C2022 06 21.44748116 41 00.072+06 23 40.36         22.27wUEM043F52
         K22M00W  C2022 06 21.50794116 41 03.104+06 24 05.74         21.18GVEM043F52
         K22M00W  C2022 06 21.50874516 41 03.150+06 24 05.82         21.11GVEM043F52
         K22M00W ^C2022 06 22.33994116 41 56.183+06 29 45.38         21.90GVEM043568
         K22M00W ^C2022 06 22.34091916 41 56.227+06 29 45.73         21.88GVEM043568
         K22M00W ^C2022 06 22.34189816 41 56.278+06 29 46.14         21.80GVEM043568
         K22M00W KC2022 06 23.21318916 42 50.90 +06 34 55.4          22.0 VuEM043H21
         K22M00W KC2022 06 23.21811316 42 51.17 +06 34 56.9          22.0 VuEM043H21
         K22M00W KC2022 06 23.27124016 42 54.680+06 35 18.28         22.11GVEM043V06
         K22M00W KC2022 06 23.27399116 42 54.821+06 35 19.28         21.94GVEM043V06
         K22M00W KC2022 06 23.27949516 42 55.055+06 35 20.51               VEM043V06
         K22M00W KC2022 06 23.33557016 42 58.176+06 35 39.59         21.84GVEM043I52
         K22M00W KC2022 06 23.34224716 42 58.511+06 35 42.40         22.18GVEM043I52
         K22M00W KC2022 06 23.35030316 42 58.943+06 35 44.59         22.22GVEM043I52
         K22M00W KC2022 06 23.35631116 42 59.292+06 35 46.75         21.72GVEM043I52
    
    Observer details:
    568 Mauna Kea.  Observers R. Wainscoat, L. Wells, T. Burdullis.  Measurers R.
        Weryk, R. Wainscoat.  3.6-m Canada-France-Hawaii Telescope + CCD.
    F52 Pan-STARRS 2, Haleakala.  Observers J. Bulger, T. Lowe, A. Schultz, I.
        Smith, K. Chambers, T. Dukes.  Measurers K. Chambers, S. Chastel, T. de
        Boer, J. Fairlamb, H. Gao, M. Huber, C.-C. Lin, E. Magnier, Y.
        Ramanjooloo, R. Wainscoat, R. Weryk.  1.8-m Ritchey-Chretien + CCD.
    H21 Astronomical Research Observatory, Westfield.  Observer R. Holmes.
        Measurers T. Linder, R. Holmes, L. Horn.  1.3-m f/4.0 astrograph + CCD.
    I52 Steward Observatory, Mt. Lemmon Station.  Observer R. A. Kowalski.
        Measurers E. J. Christensen, D. Fay, J. B. Fazekas, D. C. Fuls, A. R.
        Gibbs, A. D. Grauer, H. Groeller, J. K. Hogan, R. A. Kowalski, S. M.
        Larson, G. J. Leonard, D. Rankin, R. L. Seaman, A. Serrano, F. C. Shelly,
        K. W. Wierzchos.  1.0-m prime focus + CCD.
    V06 Catalina Sky Survey-Kuiper.  Observer R. A. Kowalski.  Measurers E. J.
        Christensen, D. Fay, J. B. Fazekas, D. C. Fuls, A. R. Gibbs, A. D. Grauer,
        H. Groeller, J. K. Hogan, R. A. Kowalski, S. M. Larson, G. J. Leonard, D.
        Rankin, R. L. Seaman, A. Serrano, F. C. Shelly, K. W. Wierzchos.  1.55-m
        reflector + 1K CCD.
    
    Orbital elements:
    2022 MW                                                  Earth MOID = 0.2450 AU
    Epoch 2022 Aug. 9.0 TT = JDT 2459800.5                  Veres                   
    M   8.66285              (2000.0)            P               Q                  
    n   0.31660441     Peri.   93.31307     +0.23625781     +0.97149716             
    a   2.1320206      Node   190.41403     -0.92865634     +0.21988035             
    e   0.4229004      Incl.    6.15415     -0.28597143     +0.08857707             
    P   3.11           H   23.16          G   0.15           U   9                  
    Residuals in seconds of arc
    220621 F52  0.1+  0.0     220622 568  0.0   0.0     220623 V06  0.0   0.0
    220621 F52  0.1+  0.2-    220622 568  0.0   0.0     220623 V06  0.9-  0.7-
    220621 F52  0.1-  0.0     220622 568  0.0   0.0     220623 I52  0.4+  0.3-
    220621 F52  0.1-  0.0     220623 H21  0.0   0.4+    220623 I52  0.0   0.3+
    220621 F52  0.0   0.2+    220623 H21  0.0   0.2+    220623 I52  0.2-  0.1-
    220621 F52  0.1+  0.0     220623 V06  0.0   0.1-    220623 I52  0.0   0.1+
    
    Ephemeris:
    2022 MW                  a,e,i = 2.13, 0.42, 6                   q = 1.2304
    Date    TT    R. A. (2000) Decl.     Delta      r    Elong.  Phase     V
    2022 05 24    16 23 32.0 -01 10 46   0.3281  1.3254   159.8    15.3    22.2
    ...
    2022 06 08    16 30 33.5 +03 42 07   0.2893  1.2783   152.3    21.6    22.1
    ...
    2022 06 16    16 36 04.6 +05 33 27   0.2777  1.2591   147.6    25.6    22.1
    ...
    2022 06 22    16 41 34.6 +06 27 38   0.2724  1.2478   144.3    28.4    22.1
    2022 06 23    16 42 37.4 +06 33 58   0.2718  1.2461   143.8    28.8    22.1
    2022 06 24    16 43 42.7 +06 39 29   0.2713  1.2446   143.3    29.2    22.1
    ...
    2022 06 30    16 51 07.6 +06 55 23   0.2694  1.2369   140.7    31.4    22.1
    ...
    2022 07 08    17 03 33.3 +06 31 06   0.2707  1.2313   138.0    33.5    22.2
    ...
    2022 07 23    17 34 19.3 +03 44 09   0.2847  1.2348   135.3    35.3    22.3
    
    M. P. C. Staff               (C) Copyright 2022 MPC           M.P.E.C. 2022-M43
    


    Read MPEC 2022-M42 Read MPEC 2022-M44


    MPEC number:

    Enter an MPEC number in one of the following forms:

    • 1997-B01 (the full form)
    • J97B01 (the packed version of the full form)
    • B01 (the abbreviated form)